DW9313 Weather Reports


time (UTC)temp
C
wind
direction
speed
KPH
gust
KPH
rain 1hr
cm
rain 24hr
cm
rain mn
cm
humidity
%
barometer
mb
20220524034239 8 293 3.2 9.7 0.00 0.18 0.00 90 1005.1
20220524033739 8 298 4.8 11.3 0.00 0.18 0.00 90 1005.1
20220524033242 8 285 3.2 9.7 0.00 0.18 0.00 90 1005.1
20220524032739 8 278 3.2 9.7 0.00 0.18 0.00 90 1005.0
20220524032240 8 286 3.2 9.7 0.00 0.18 0.00 90 1004.9
20220524031741 8 291 4.8 11.3 0.00 0.18 0.00 90 1004.9
20220524031240 8 295 4.8 11.3 0.00 0.18 0.00 90 1004.8
20220524030739 8 309 8.0 12.9 0.00 0.18 0.00 90 1004.8
20220524030239 8 280 4.8 12.9 0.00 0.18 0.00 90 1004.7
20220524025739 8 290 4.8 9.7 0.00 0.18 0.00 89 1004.7
20220524025240 8 274 3.2 8.0 0.00 0.18 0.00 89 1004.6
20220524024741 8 295 3.2 9.7 0.00 0.18 0.00 89 1004.7
20220524024241 8 268 3.2 9.7 0.00 0.18 0.00 89 1004.7
20220524023741 8 279 3.2 8.0 0.00 0.18 0.00 89 1004.7
20220524023240 9 301 6.4 11.3 0.00 0.18 0.00 89 1004.7
20220524022740 9 276 3.2 12.9 0.00 0.18 0.00 89 1004.7
20220524022240 9 289 3.2 11.3 0.00 0.18 0.00 89 1004.7
20220524021740 8 287 4.8 12.9 0.00 0.18 0.00 89 1004.7
20220524021240 8 288 6.4 12.9 0.00 0.18 0.00 89 1004.6
20220524020741 8 284 4.8 12.9 0.00 0.18 0.00 89 1004.6
20220524020240 8 287 6.4 12.9 0.00 0.18 0.00 90 1004.6
20220524015741 8 286 4.8 12.9 0.00 0.18 0.00 89 1004.6
20220524015242 8 297 3.2 9.7 0.00 0.18 0.00 89 1004.5
20220524014740 8 288 3.2 9.7 0.00 0.18 0.00 89 1004.5
20220524014240 8 292 4.8 11.3 0.00 0.18 0.00 89 1004.5
20220524013740 8 282 4.8 9.7 0.00 0.18 0.00 89 1004.5
20220524013240 8 289 4.8 9.7 0.00 0.18 0.00 88 1004.4
20220524012740 8 289 4.8 9.7 0.00 0.18 0.00 88 1004.4
20220524012240 9 288 4.8 9.7 0.00 0.18 0.00 88 1004.4
20220524011741 9 291 3.2 9.7 0.00 0.18 0.00 89 1004.4
20220524011240 9 289 4.8 11.3 0.00 0.18 0.00 89 1004.4
20220524010740 8 289 4.8 9.7 0.00 0.18 0.00 89 1004.4
20220524010240 8 281 4.8 9.7 0.00 0.18 0.00 89 1004.4
20220524005740 8 309 4.8 11.3 0.00 0.18 0.00 89 1004.4
20220524005241 8 289 4.8 11.3 0.00 0.18 0.00 89 1004.4
20220524004742 8 289 6.4 12.9 0.00 0.18 0.00 89 1004.4
20220524004240 8 297 4.8 12.9 0.00 0.18 0.00 89 1004.4
20220524003741 8 283 1.6 9.7 0.00 0.18 0.00 89 1004.4
20220524003241 8 300 1.6 8.0 0.00 0.18 0.00 89 1004.4
20220524002741 8 291 1.6 8.0 0.00 0.18 0.00 90 1004.4
20220524002240 8 261 0.0 0.0 0.00 0.18 0.00 89 1004.4
20220524001741 8 247 0.0 0.0 0.00 0.18 0.00 88 1004.4
20220524001241 8 247 0.0 0.0 0.00 0.18 0.00 88 1004.4
20220524000741 8 247 0.0 0.0 0.00 0.18 0.00 88 1004.5
20220524000242 8 249 0.0 0.0 0.00 0.18 0.00 88 1004.5
20220523235742 8 249 0.0 0.0 0.00 0.18 0.00 87 1004.5
20220523235242 8 250 0.0 0.0 0.00 0.18 0.00 87 1004.5
20220523234742 8 272 0.0 0.0 0.00 0.18 0.00 87 1004.5
20220523234240 8 284 0.0 0.0 0.00 0.18 0.00 87 1004.4
20220523233741 9 289 0.0 0.0 0.00 0.18 0.00 87 1004.5
20220523233242 8 300 0.0 9.7 0.00 0.18 0.00 87 1004.5
20220523232741 8 298 1.6 3.2 0.00 0.18 0.00 87 1004.5
20220523232242 8 290 0.0 9.7 0.00 0.18 0.00 87 1004.5
20220523231742 8 293 3.2 9.7 0.00 0.18 0.00 87 1004.5
20220523231241 8 286 3.2 9.7 0.00 0.18 0.00 86 1004.5
20220523230814 8 286 3.2 9.7 0.00 0.18 0.00 86 1004.5
20220523230241 8 293 4.8 11.3 0.00 0.18 0.00 87 1004.5
20220523225741 8 289 4.8 9.7 0.00 0.18 0.18 87 1004.5
20220523225241 9 287 4.8 9.7 0.00 0.18 0.18 86 1004.4
20220523224742 9 279 4.8 9.7 0.00 0.18 0.18 85 1004.3
20220523224243 9 276 3.2 9.7 0.00 0.18 0.18 85 1004.3
20220523223743 10 281 1.6 9.7 0.00 0.18 0.18 85 1004.2
20220523223242 10 304 1.6 9.7 0.00 0.18 0.18 85 1004.1
20220523222742 10 292 1.6 9.7 0.00 0.18 0.18 85 1004.1
20220523222242 10 306 4.8 9.7 0.03 0.18 0.18 85 1004.1
20220523221743 10 323 4.8 9.7 0.03 0.18 0.18 85 1004.1
20220523221241 10 322 3.2 9.7 0.03 0.18 0.18 85 1004.1
20220523220744 10 283 1.6 9.7 0.03 0.18 0.18 85 1004.1
20220523220242 10 296 1.6 9.7 0.03 0.18 0.18 85 1004.1
20220523215742 10 296 3.2 9.7 0.03 0.18 0.18 85 1004.2
20220523215242 10 318 4.8 9.7 0.03 0.18 0.18 85 1004.2
20220523214742 10 325 4.8 9.7 0.03 0.18 0.18 85 1004.2
20220523214243 10 325 3.2 9.7 0.03 0.18 0.18 85 1004.2
20220523213742 10 323 3.2 14.5 0.03 0.18 0.18 85 1004.2
20220523213242 10 321 6.4 12.9 0.03 0.18 0.18 85 1004.2
20220523212742 10 326 4.8 12.9 0.03 0.18 0.18 85 1004.2
20220523212245 10 313 9.7 12.9 0.00 0.15 0.15 84 1004.2
20220523211743 11 328 8.0 19.3 0.00 0.15 0.15 84 1004.2
20220523211243 11 320 11.3 19.3 0.00 0.15 0.15 83 1004.2
20220523210744 11 327 11.3 19.3 0.00 0.15 0.15 83 1004.1
20220523210242 11 315 4.8 12.9 0.00 0.15 0.15 84 1004.1
20220523205744 11 312 6.4 12.9 0.00 0.15 0.15 84 1004.1
20220523205245 11 326 6.4 12.9 0.00 0.15 0.15 84 1004.0
20220523204743 10 318 4.8 11.3 0.00 0.15 0.15 84 1004.0
20220523204244 10 290 3.2 9.7 0.00 0.15 0.15 84 1004.0
20220523203744 10 277 0.0 3.2 0.00 0.15 0.15 84 1003.9
20220523203242 10 255 1.6 8.0 0.00 0.15 0.15 84 1003.8
20220523202744 11 283 4.8 9.7 0.00 0.15 0.15 84 1003.8
20220523202244 11 285 4.8 11.3 0.00 0.15 0.15 83 1003.7
20220523201742 11 284 4.8 9.7 0.00 0.15 0.15 83 1003.7
20220523201243 11 277 4.8 12.9 0.00 0.15 0.15 83 1003.6
20220523200746 11 296 6.4 12.9 0.00 0.15 0.15 83 1003.5
20220523200243 11 294 3.2 12.9 0.00 0.15 0.15 83 1003.4
20220523195744 11 308 4.8 11.3 0.00 0.15 0.15 83 1003.4
20220523195243 11 286 4.8 11.3 0.00 0.15 0.15 83 1003.4
20220523194743 11 289 4.8 12.9 0.00 0.15 0.15 82 1003.4
20220523194245 11 288 4.8 12.9 0.00 0.15 0.15 82 1003.4
20220523193744 11 291 8.0 14.5 0.00 0.15 0.15 82 1003.3
20220523193244 11 284 4.8 19.3 0.00 0.15 0.15 82 1003.3
20220523192744 11 292 6.4 12.9 0.00 0.15 0.15 82 1003.3
20220523192244 11 288 8.0 14.5 0.00 0.15 0.15 82 1003.3
20220523191746 11 292 6.4 12.9 0.00 0.15 0.15 82 1003.3
20220523191246 11 302 6.4 19.3 0.00 0.15 0.15 82 1003.3
20220523190744 11 299 9.7 19.3 0.00 0.15 0.15 82 1003.3
20220523190245 11 316 9.7 14.5 0.00 0.15 0.15 82 1003.2
20220523185745 11 313 8.0 12.9 0.00 0.15 0.15 81 1003.1
20220523185244 11 333 9.7 19.3 0.00 0.15 0.15 81 1003.2
20220523184743 11 325 12.9 20.9 0.00 0.15 0.15 80 1003.2
20220523184244 11 327 9.7 20.9 0.00 0.15 0.15 80 1003.2
20220523183744 12 329 8.0 19.3 0.00 0.15 0.15 80 1003.2
20220523183245 12 328 11.3 19.3 0.00 0.15 0.15 79 1003.2
20220523182744 12 287 8.0 19.3 0.00 0.15 0.15 81 1003.3
20220523182246 11 300 9.7 19.3 0.00 0.15 0.15 80 1003.3
20220523181744 11 316 11.3 22.5 0.00 0.15 0.15 80 1003.2
20220523181244 11 305 9.7 19.3 0.00 0.15 0.15 83 1003.2
20220523180745 11 311 8.0 19.3 0.00 0.15 0.15 83 1003.1
20220523180246 12 323 14.5 22.5 0.00 0.15 0.15 80 1003.1
20220523175747 12 316 14.5 25.7 0.00 0.15 0.15 77 1003.1
20220523175244 12 314 12.9 32.2 0.00 0.15 0.15 75 1003.0
20220523174744 12 316 17.7 32.2 0.00 0.15 0.15 71 1003.0
20220523174244 13 315 11.3 25.7 0.00 0.15 0.15 74 1002.9
20220523173746 13 312 11.3 22.5 0.00 0.15 0.15 76 1002.8
20220523173245 13 328 8.0 12.9 0.00 0.15 0.15 76 1002.6
20220523172749 13 317 11.3 22.5 0.00 0.15 0.15 76 1002.5
20220523172251 13 315 8.0 12.9 0.00 0.15 0.15 79 1002.6
20220523171756 12 296 0.0 9.7 0.00 0.15 0.15 80 1002.6
20220523171258 12 351 3.2 9.7 0.00 0.15 0.15 79 1002.8
20220523165746 12 339 6.4 19.3 0.00 0.15 0.15 77 1002.8
20220523165247 12 343 9.7 22.5 0.00 0.15 0.15 74 1002.8
20220523164246 13 328 3.2 12.9 0.00 0.15 0.15 76 1002.6
20220523163745 13 318 4.8 9.7 0.00 0.15 0.15 74 1002.5
20220523163247 13 331 3.2 9.7 0.00 0.15 0.15 74 1002.4
20220523162746 13 315 1.6 8.0 0.00 0.15 0.15 76 1002.4
20220523162245 13 64 3.2 9.7 0.00 0.15 0.15 77 1002.3
20220523161745 13 333 4.8 9.7 0.00 0.15 0.15 76 1002.3
20220523161244 13 327 4.8 12.9 0.03 0.15 0.15 77 1002.3
20220523160745 13 329 8.0 20.9 0.03 0.15 0.15 76 1002.3
20220523160245 13 329 8.0 22.5 0.05 0.15 0.15 77 1002.3
20220523155746 13 24 3.2 12.9 0.13 0.15 0.15 77 1002.4
20220523155244 13 38 6.4 12.9 0.15 0.15 0.15 78 1002.4
20220523154746 13 341 9.7 22.5 0.15 0.15 0.15 79 1002.4
20220523154246 13 347 6.4 12.9 0.15 0.15 0.15 82 1002.4
20220523153746 13 337 4.8 19.3 0.15 0.15 0.15 82 1002.5
20220523152248 13 53 3.2 12.9 0.15 0.15 0.15 86 1002.5
20220523151746 12 325 3.2 12.9 0.15 0.15 0.15 83 1002.5
20220523151246 11 277 0.0 8.0 0.15 0.15 0.15 84 1002.4
20220523150745 11 291 4.8 12.9 0.15 0.15 0.15 82 1002.5
20220523150247 11 305 8.0 12.9 0.15 0.15 0.15 82 1002.6
20220523145745 11 298 9.7 19.3 0.13 0.13 0.13 81 1002.6
20220523145246 11 298 14.5 22.5 0.13 0.13 0.13 81 1002.6
20220523144747 12 308 16.1 29.0 0.05 0.05 0.05 78 1002.5
20220523144246 13 302 14.5 29.0 0.00 0.00 0.00 72 1002.4
20220523143747 13 298 17.7 32.2 0.00 0.00 0.00 67 1002.4
20220523143246 15 305 14.5 33.8 0.00 0.00 0.00 64 1002.4
20220523142747 15 305 11.3 25.7 0.00 0.00 0.00 63 1002.3
20220523142247 15 298 9.7 19.3 0.00 0.00 0.00 63 1002.3
20220523141745 15 242 6.4 14.5 0.00 0.00 0.00 65 1002.3
20220523141247 15 308 6.4 19.3 0.00 0.00 0.00 65 1002.4
20220523140745 15 293 6.4 12.9 0.00 0.00 0.00 71 1002.4
20220523140246 15 287 6.4 11.3 0.00 0.00 0.00 71 1002.5
20220523135747 14 323 9.7 12.9 0.00 0.00 0.00 69 1002.5
20220523135245 14 316 8.0 12.9 0.00 0.00 0.00 69 1002.5
20220523134747 15 294 8.0 19.3 0.00 0.00 0.00 69 1002.6
20220523134247 15 293 11.3 19.3 0.00 0.00 0.00 68 1002.6
20220523133746 15 307 11.3 20.9 0.00 0.00 0.00 66 1002.6
20220523133246 15 311 8.0 19.3 0.00 0.00 0.00 69 1002.6
20220523132746 15 327 14.5 25.7 0.00 0.00 0.00 66 1002.6
20220523132249 15 321 16.1 25.7 0.00 0.00 0.00 68 1002.5
20220523131747 15 318 12.9 22.5 0.00 0.00 0.00 69 1002.6
20220523131247 15 319 11.3 22.5 0.00 0.00 0.00 69 1002.5
20220523130748 14 328 11.3 22.5 0.00 0.00 0.00 70 1002.6
20220523130248 14 316 14.5 24.1 0.00 0.00 0.00 70 1002.6
20220523125746 14 314 14.5 25.7 0.00 0.00 0.00 69 1002.8
20220523125247 15 329 9.7 22.5 0.00 0.00 0.00 70 1002.8
20220523124747 14 329 14.5 24.1 0.00 0.00 0.00 69 1002.8
20220523124250 14 314 16.1 25.7 0.00 0.00 0.00 70 1002.8
20220523123746 15 321 16.1 25.7 0.00 0.00 0.00 71 1002.8
20220523123247 15 313 11.3 22.5 0.00 0.00 0.00 71 1002.8
20220523122747 15 314 11.3 20.9 0.00 0.00 0.00 68 1002.7
20220523122247 15 293 11.3 24.1 0.00 0.00 0.00 69 1002.7
20220523121747 15 312 8.0 20.9 0.00 0.00 0.00 71 1002.9
20220523121247 15 323 11.3 19.3 0.00 0.00 0.00 71 1002.9
20220523120747 14 289 8.0 20.9 0.00 0.00 0.00 73 1002.8
20220523120248 14 326 8.0 19.3 0.00 0.00 0.00 73 1002.9
20220523115748 14 310 8.0 19.3 0.00 0.00 0.00 73 1002.9
20220523115247 14 340 8.0 19.3 0.00 0.00 0.00 74 1002.9
20220523114748 14 325 6.4 22.5 0.00 0.00 0.00 74 1003.0
20220523114247 14 322 11.3 24.1 0.00 0.00 0.00 71 1002.9
20220523113747 14 321 11.3 20.9 0.00 0.00 0.00 70 1002.9
20220523113248 15 306 14.5 25.7 0.00 0.00 0.00 67 1003.0
20220523112748 15 329 8.0 19.3 0.00 0.00 0.00 70 1002.9
20220523112248 15 305 9.7 19.3 0.00 0.00 0.00 69 1002.8
20220523111747 15 307 8.0 19.3 0.00 0.00 0.00 70 1002.8
20220523111248 15 325 9.7 19.3 0.00 0.00 0.00 71 1002.8
20220523110747 15 308 4.8 12.9 0.00 0.00 0.00 71 1002.9
20220523110247 15 279 6.4 19.3 0.00 0.00 0.00 71 1003.0
20220523105750 15 310 9.7 14.5 0.00 0.00 0.00 70 1003.1
20220523105247 15 306 8.0 19.3 0.00 0.00 0.00 73 1003.1
20220523104748 15 326 9.7 19.3 0.00 0.00 0.00 71 1003.1
20220523104248 15 306 4.8 19.3 0.00 0.00 0.00 73 1003.2
20220523103747 14 251 4.8 12.9 0.00 0.00 0.00 73 1003.2
20220523103248 14 324 8.0 19.3 0.00 0.00 0.00 72 1003.3
20220523102749 14 292 8.0 14.5 0.00 0.00 0.00 71 1003.4
20220523102248 14 296 12.9 22.5 0.00 0.00 0.00 69 1003.4
20220523101749 14 292 12.9 22.5 0.00 0.00 0.00 71 1003.4
20220523101249 13 302 9.7 20.9 0.00 0.00 0.00 72 1003.5
20220523100750 13 319 9.7 22.5 0.00 0.00 0.00 74 1003.5
20220523100250 13 304 8.0 14.5 0.00 0.00 0.00 76 1003.6
20220523095749 13 291 8.0 14.5 0.00 0.00 0.00 76 1003.6
20220523095250 13 285 8.0 19.3 0.00 0.00 0.00 80 1003.6
20220523094749 13 298 9.7 19.3 0.00 0.00 0.00 80 1003.5
20220523094248 13 291 9.7 19.3 0.00 0.00 0.00 80 1003.5
20220523093747 13 280 8.0 12.9 0.00 0.00 0.00 81 1003.5
20220523093249 13 279 4.8 19.3 0.00 0.00 0.00 82 1003.5
20220523092748 12 329 8.0 14.5 0.00 0.00 0.00 82 1003.5
20220523092251 12 288 8.0 19.3 0.00 0.00 0.00 81 1003.5
20220523091748 12 311 8.0 14.5 0.00 0.00 0.00 82 1003.6
20220523091248 12 290 9.7 14.5 0.00 0.00 0.00 82 1003.6
20220523090748 13 309 11.3 20.9 0.00 0.00 0.00 80 1003.7
20220523090248 13 292 9.7 16.1 0.00 0.00 0.00 83 1003.6
20220523085749 12 314 9.7 19.3 0.00 0.00 0.00 83 1003.7
20220523085249 12 288 4.8 12.9 0.00 0.00 0.00 86 1003.7
20220523084748 12 289 8.0 19.3 0.00 0.00 0.00 85 1003.8
20220523084250 12 304 8.0 14.5 0.00 0.00 0.00 87 1003.8
20220523083750 12 284 8.0 12.9 0.00 0.00 0.00 86 1003.8
20220523083250 12 293 8.0 12.9 0.00 0.00 0.00 85 1003.8
20220523082749 12 282 6.4 12.9 0.00 0.00 0.00 83 1003.8
20220523082248 13 297 9.7 20.9 0.00 0.00 0.00 80 1003.7
20220523081750 13 311 9.7 19.3 0.00 0.00 0.00 79 1003.8
20220523081250 13 298 4.8 12.9 0.00 0.00 0.00 80 1003.8
20220523080749 12 276 6.4 12.9 0.00 0.00 0.00 81 1003.9
20220523080248 12 323 4.8 11.3 0.00 0.00 0.00 81 1003.9
20220523075749 12 300 3.2 9.7 0.00 0.00 0.00 82 1003.9
20220523075250 12 323 3.2 9.7 0.00 0.00 0.00 83 1003.9
20220523074748 12 289 3.2 12.9 0.00 0.00 0.00 83 1004.1
20220523074249 12 306 3.2 9.7 0.00 0.00 0.00 84 1004.1
20220523073749 12 275 3.2 9.7 0.00 0.00 0.00 86 1004.1
20220523073249 12 239 3.2 9.7 0.00 0.03 0.00 86 1004.1
20220523072749 12 259 3.2 9.7 0.00 0.03 0.00 88 1004.1
20220523072250 11 275 3.2 8.0 0.00 0.03 0.00 88 1004.2
20220523071749 11 288 3.2 8.0 0.00 0.03 0.00 88 1004.2
20220523071250 11 270 3.2 9.7 0.00 0.03 0.00 88 1004.2
20220523070749 11 298 3.2 8.0 0.00 0.03 0.00 89 1004.3
20220523070249 11 286 3.2 9.7 0.00 0.03 0.00 89 1004.3
20220523065750 11 312 3.2 9.7 0.00 0.03 0.00 88 1004.3
20220523065250 11 295 4.8 9.7 0.00 0.03 0.00 89 1004.3
20220523064751 11 282 1.6 9.7 0.00 0.03 0.00 89 1004.3
20220523064250 11 271 0.0 3.2 0.00 0.03 0.00 89 1004.4
20220523063749 11 272 3.2 9.7 0.00 0.03 0.00 89 1004.3
20220523063251 10 273 3.2 9.7 0.00 0.03 0.00 88 1004.4
20220523062750 10 272 3.2 9.7 0.00 0.05 0.00 88 1004.4
20220523062249 10 264 3.2 9.7 0.00 0.05 0.00 88 1004.4
20220523061749 10 279 4.8 9.7 0.00 0.05 0.00 88 1004.4
20220523061249 10 282 0.0 3.2 0.00 0.05 0.00 88 1004.4
20220523060749 10 274 3.2 8.0 0.00 0.05 0.00 88 1004.5
20220523060249 10 273 0.0 0.0 0.00 0.05 0.00 88 1004.5
20220523055749 10 276 0.0 3.2 0.00 0.05 0.00 88 1004.5
20220523055249 10 88 0.0 3.2 0.00 0.05 0.00 88 1004.5
20220523054750 10 90 0.0 0.0 0.00 0.05 0.00 88 1004.5
20220523054250 10 90 0.0 0.0 0.00 0.05 0.00 88 1004.4
20220523053751 10 88 0.0 0.0 0.00 0.05 0.00 88 1004.5
20220523053250 10 17 0.0 0.0 0.00 0.05 0.00 88 1004.5
20220523052750 10 17 0.0 0.0 0.00 0.05 0.00 87 1004.5
20220523052251 10 5 0.0 0.0 0.00 0.05 0.00 88 1004.5
20220523051749 10 252 0.0 0.0 0.00 0.05 0.00 87 1004.4
20220523051250 10 249 0.0 0.0 0.00 0.05 0.00 88 1004.3
20220523050750 10 301 0.0 0.0 0.00 0.05 0.00 88 1004.3
20220523050250 10 275 0.0 0.0 0.00 0.08 0.00 88 1004.3
20220523045750 10 276 1.6 8.0 0.00 0.08 0.00 88 1004.3
20220523045250 10 250 1.6 8.0 0.00 0.08 0.00 89 1004.4
20220523044750 10 247 0.0 0.0 0.00 0.08 0.00 89 1004.4
20220523044250 10 245 0.0 0.0 0.00 0.08 0.00 88 1004.4
20220523043750 10 244 3.2 9.7 0.00 0.08 0.00 88 1004.4
20220523043251 10 248 3.2 9.7 0.00 0.08 0.00 88 1004.5
20220523042753 10 240 1.6 8.0 0.00 0.08 0.00 87 1004.5
20220523042253 10 274 0.0 9.7 0.00 0.08 0.00 87 1004.5
20220523041751 10 158 0.0 0.0 0.00 0.08 0.00 88 1004.5
20220523041252 10 157 0.0 0.0 0.00 0.08 0.00 87 1004.5
20220523040752 10 179 0.0 0.0 0.00 0.08 0.00 87 1004.5
20220523040250 10 208 0.0 0.0 0.00 0.08 0.00 87 1004.6
20220523035750 10 230 0.0 0.0 0.00 0.08 0.00 87 1004.6
20220523035250 10 262 0.0 0.0 0.00 0.10 0.00 86 1004.7
20220523034750 10 262 0.0 8.0 0.00 0.10 0.00 87 1004.7